Regional Weather Roundup
Issued by NWS

Home | Current Version | Previous Version | Graphics & Text | Print | Product List | Glossary On
Versions: 1 2 3 4 5 6 7 8 9 10 11 12 13 14 15 16 17 18 19 20 21 22 23 24 25 26 27 28 29 30 31 32 33 34 35 36 37 38 39 40 41 42 43 44 45 46 47 48 49 50
000
ASUS44 KMEG 171800
RWRTN
TENNESSEE HOURLY STATE WEATHER ROUNDUP
NATIONAL WEATHER SERVICE MEMPHIS TN
1200 PM CST WED JAN 17 2018

TNZ002-004-019-021-049-052-054-088>092-171900-
WEST TENNESSEE

CITY           SKY/WX    TMP DP  RH WIND       PRES   REMARKS
MEMPHIS INTL   FAIR      18   9  68 NW5       30.73F WCI  11
NWS MEMPHIS      N/A     18 N/A N/A MISG        N/A
JACKSON        PTSUNNY   14   6  70 CALM      30.73F
DYERSBURG      PTSUNNY   25  11  55 VRB3      30.75F
$$

TNZ008-025-027-028-033-062-065-066-171900-
NORTH MIDDLE TENNESSEE

CITY           SKY/WX    TMP DP  RH WIND       PRES   REMARKS
NASHVILLE      FAIR      18   7  62 N9        30.65F WCI   7
CLARKSVILLE    CLOUDY    13   4  67 NW7       30.67F WCI   3
SMYRNA         PTSUNNY   15   7  70 NW7       30.66F WCI   5
CROSSVILLE     CLOUDY    12   4  70 N12       30.46F WCI  -2
$$

TNZ061-075-076-078-094-096-097-171900-
SOUTH MIDDLE TENNESSEE

CITY           SKY/WX    TMP DP  RH WIND       PRES   REMARKS
WINCHESTER       N/A     14   7  73 N12       30.57F WCI   0
$$

TNZ017-018-042-046-047-171900-
NORTHEAST TENNESSEE

CITY           SKY/WX    TMP DP  RH WIND       PRES   REMARKS
TRI CITIES     FAIR      19   9  65 NW10      30.39F WCI   7
$$

TNZ012-013-036-069-073-074-171900-
CENTRAL EAST TENNESSEE

CITY           SKY/WX    TMP DP  RH WIND       PRES   REMARKS
KNOXVILLE      FAIR      16   5  62 N9        30.51S WCI   4
OAK RIDGE      FAIR      18   5  57 CALM      30.52F
$$

TNZ083-085-099-171900-
SOUTHEAST TENNESSEE

CITY           SKY/WX    TMP DP  RH WIND       PRES   REMARKS
CHATTANOOGA    FAIR      22   7  52 N16       30.52F WCI   8
$$

SKY/WX REPORTED AS FAIR MEANS FEW OR NO CLOUDS BELOW
12 THOUSAND FEET.





USA.gov is the U.S. government's official web portal to all federal, state and local government web resources and services.